Location: Oregon Trail
(41.1872°N, 102.0741°W)
Time: 07:42:48
(UTC+00:00)

PSLV R/B - Pass Details

Date: 19 November 2019
Orbit: 505 x 579 km, 97.8° (Epoch: 15 December)

Event Time Altitude Azimuth Distance (km) Brightness Sun altitude
Rises 12:25:35 0° 2° (N) 2,689 7.2 -14.1°
Reaches altitude 10° 12:27:49 10° 353° (N) 1,806 6.2 -13.7°
Maximum altitude 12:31:20 34° 289° (WNW) 925 4.4 -13.1°
Drops below altitude 10° 12:34:56 10° 224° (SW) 1,834 6.2 -12.4°
Sets 12:37:12 0° 215° (SW) 2,736 7.2 -12.0°
